User: anonymous   Login
Location: Unspecified
(0.0000°N, 0.0000°E)
Time: 21:31:55
(UTC+00:00)
Language:

Tiangong 2 - Orbit

View from above orbital plane
View from above orbital plane
View from above satellite
View from above satellite

Ground track
Ground track

The orbit data is extracted from the following two-line orbital elements,

1 41765U 16057A   18198.35944271  .00002618  00000-0  37363-4 0  9997
2 41765  42.7836 160.9204 0005675 114.4350  15.9629 15.59048609104732
Epoch (UTC): 17 July 2018 08:37:35
Eccentricity: 0.0005675
inclination: 42.7836°
perigee height: 386 km
apogee height: 394 km
right ascension of ascending node: 160.9204°
argument of perigee: 114.4350°
revolutions per day: 15.59048609
mean anomaly at epoch: 15.9629°
orbit number at epoch: 10473

The dashed part of the orbit path shows where the satellite is in the earth's shadow,  

DLR